Weather History for Craig, CO

Change the Weather History Date:

Sunday, February 17, 2013

  Actual Average Record
Temperature  
Mean Temperature 19 °F 21 °F  
Max Temperature 35 °F 34 °F 45 °F (1997)
Min Temperature 3 °F 8 °F -11 °F (2005)
Degree Days  
Heating Degree Days 46 44  
Month to date heating degree days 793 780  
Since 1 July heating degree days 5767 5864  
Cooling Degree Days 0 0  
Month to date cooling degree days 0 0  
Year to date cooling degree days 0 0  
Moisture  
Dew Point 11 °F    
Average Humidity 68    
Maximum Humidity 88    
Minimum Humidity 47    
Precipitation  
Precipitation T in 0.03 in 0.22 in (2011)
Month to date precipitation 0.14 0.50  
Year to date precipitation 0.85 1.38  
Sea Level Pressure  
Sea Level Pressure 30.03 in    
Wind  
Wind Speed 4 mph (West)    
Max Wind Speed 22 mph    
Max Gust Speed 28 mph    
Visibility 10 miles    
Events Snow    
T = Trace of Precipitation, MM = Missing Value Source: NWS Daily Summary

Daily Weather History Graph

Daily Weather History Graph

Search for Another Location

Airport:

Trip Planner

Search our weather history database for the weather conditions in past years. The results will help you decide how hot, cold, wet, or windy it might be!

Date:

Astronomy

Feb. 17, 2013 Rise Set
Actual Time 7:00 AM MST 5:48 PM MST
Civil Twilight 6:32 AM MST 6:15 PM MST
Nautical Twilight 6:00 AM MST 6:47 PM MST
Astronomical Twilight 5:29 AM MST 7:19 PM MST
Moon 10:53 AM MST (2/17) 12:48 AM MST (2/17)
Length of Visible Light 11h 43m
Length of Day
10h 47m
Waxing Crescent, 49% of the Moon is Illuminated
Feb 17
Waxing Crescent
Feb 17
First Quarter
Feb 25
Full
Mar 4
Last Quarter
Mar 11
New

Hourly Weather History & Observations

Time (MST) Temp. Windchill Dew Point Humidity Pressure Visibility Wind Dir Wind Speed Gust Speed Precip Events Conditions
12:53 AM 8.1 °F - 3.0 °F 80% 30.27 in 10.0 mi Calm Calm - N/A   Clear
1:53 AM 6.1 °F - 1.0 °F 80% 30.22 in 10.0 mi Calm Calm - N/A   Clear
2:53 AM 5.0 °F - -0.0 °F 80% 30.18 in 10.0 mi Calm Calm - N/A   Clear
3:53 AM 10.0 °F 3.6 °F 5.0 °F 80% 30.14 in 10.0 mi SSW 3.5 mph - N/A   Clear
4:53 AM 6.1 °F -2.8 °F 1.9 °F 83% 30.14 in 10.0 mi NW 4.6 mph - N/A   Clear
5:53 AM 7.0 °F - 1.0 °F 77% 30.14 in 10.0 mi Calm Calm - N/A   Clear
6:53 AM 9.0 °F - 3.0 °F 77% 30.12 in 10.0 mi Calm Calm - N/A   Clear
7:53 AM 14.0 °F - 6.1 °F 71% 30.09 in 10.0 mi Calm Calm - N/A   Clear
8:53 AM 15.1 °F 9.4 °F 8.1 °F 74% 30.08 in 10.0 mi SW 3.5 mph - N/A   Clear
9:53 AM 18.0 °F - 10.0 °F 71% 30.07 in 10.0 mi Calm Calm - N/A   Clear
10:53 AM 23.0 °F - 12.0 °F 63% 30.01 in 10.0 mi Calm Calm - N/A   Clear
11:53 AM 28.0 °F - 12.0 °F 51% 29.96 in 10.0 mi Calm Calm - N/A   Clear
12:53 PM 28.0 °F 24.2 °F 14.0 °F 56% 29.92 in 10.0 mi ESE 3.5 mph - N/A   Clear
1:53 PM 30.0 °F 25.2 °F 17.1 °F 59% 29.91 in 10.0 mi South 4.6 mph - N/A   Clear
2:53 PM 35.1 °F - 18.0 °F 50% 29.88 in 10.0 mi Calm Calm - N/A   Clear
3:53 PM 33.1 °F 30.0 °F 17.1 °F 52% 29.85 in 10.0 mi South 3.5 mph - N/A   Clear
4:53 PM 34.0 °F 31.0 °F 18.0 °F 52% 29.88 in 10.0 mi Variable 3.5 mph - N/A   Clear
5:53 PM 30.0 °F 20.0 °F 23.0 °F 75% 29.94 in 10.0 mi NNW 12.7 mph 20.7 mph N/A   Overcast
6:05 PM 28.4 °F 18.5 °F 23.0 °F 80% 29.80 in 2.5 mi NW 11.5 mph 19.6 mph 0.00 in Snow Light Snow
6:21 PM 28.4 °F 22.2 °F 21.2 °F 74% 29.81 in 4.0 mi NNW 5.8 mph - 0.00 in Snow Light Snow
6:53 PM 28.0 °F 21.7 °F 19.0 °F 69% 30.01 in 10.0 mi WSW 5.8 mph - 0.00 in   Overcast
7:53 PM 28.0 °F 18.1 °F 12.0 °F 51% 30.01 in 10.0 mi NW 11.5 mph 19.6 mph N/A   Overcast
8:53 PM 27.0 °F 14.7 °F 10.9 °F 51% 30.04 in 10.0 mi WNW 16.1 mph - 0.00 in   Overcast
10:53 PM 23.0 °F 13.9 °F 12.0 °F 63% 30.04 in 10.0 mi West 8.1 mph - N/A   Overcast
11:53 PM 21.9 °F 11.0 °F 10.9 °F 63% 30.03 in 10.0 mi West 10.4 mph - N/A   Overcast